Location: Carella
(45.8167°N, 9.2667°E)
Time: 23:10:57
(UTC+00:00)

STARLINK-1107 - Pass Details

Date: 30 March 2020
Orbit: 548 x 551 km, 53.0° (Epoch: 29 May)

Event Time Altitude Azimuth Distance (km) Brightness Sun altitude
Rises 18:31:56 0° 295° (WNW) 2,718 9.3 -8.1°
Reaches altitude 10° 18:34:26 10° 282° (WNW) 1,821 8.0 -8.6°
Maximum altitude 18:37:51 25° 226° (SW) 1,122 5.6 -9.1°
Drops below altitude 10° 18:41:15 10° 170° (S) 1,811 6.0 -9.7°
Enters shadow 18:43:24 - 159° (SSE) 2,572 6.7 -10.1°
